• în România
  • Lista ţărilor
  • Pe 7 zile
  • Temperatura apei
  • Hartă satelitară
  • Meteo pe hartă
  • Widget-uri
  • user-avatar
    Intrare

    Meteo pe oră la Naftalan

    Astăzi, 28 Mai, Duminică

    Timp Temperatura Precipitaţii Vânt Presiune Umiditate
    00:00 +18°C° 0 mm 1 m/s 760 mmHg 85%
    01:00 +18°C° 0 mm 1 m/s 760 mmHg 86%
    02:00 +17°C° 0 mm 2 m/s 760 mmHg 86%
    03:00 +16°C° 0 mm 2 m/s 760 mmHg 86%
    04:00 +18°C° 0 mm 2 m/s 761 mmHg 80%
    05:00 +20°C° 0 mm 1 m/s 761 mmHg 75%
    06:00 +22°C° 0 mm 1 m/s 761 mmHg 69%
    07:00 +23°C° 0 mm 1 m/s 761 mmHg 63%
    08:00 +25°C° 0 mm 2 m/s 761 mmHg 56%
    09:00 +27°C° 0 mm 2 m/s 762 mmHg 50%
    10:00 +28°C° 0 mm 2 m/s 761 mmHg 47%
    11:00 +29°C° 0 mm 3 m/s 761 mmHg 45%
    12:00 +30°C° 0 mm 4 m/s 761 mmHg 42%
    13:00 +30°C° 0 mm 4 m/s 761 mmHg 44%
    14:00 +29°C° 0 mm 5 m/s 760 mmHg 47%
    15:00 +29°C° 0 mm 6 m/s 760 mmHg 50%
    16:00 +27°C° 0 mm 5 m/s 760 mmHg 54%
    17:00 +26°C° 0 mm 5 m/s 760 mmHg 58%
    18:00 +23°C° 0 mm 5 m/s 760 mmHg 63%
    19:00 +22°C° 0 mm 4 m/s 761 mmHg 67%
    20:00 +21°C° 0 mm 3 m/s 762 mmHg 71%
    21:00 +19°C° 0 mm 3 m/s 762 mmHg 75%
    22:00 +19°C° 0 mm 3 m/s 762 mmHg 76%
    23:00 +18°C° 0 mm 2 m/s 763 mmHg 77%

    Mâine, 29 Mai, Luni

    Timp Temperatura Precipitaţii Vânt Presiune Umiditate
    00:00 +18°C° 0 mm 2 m/s 763 mmHg 78%
    01:00 +17°C° 0 mm 2 m/s 763 mmHg 78%
    02:00 +17°C° 0 mm 2 m/s 763 mmHg 79%
    03:00 +17°C° 0 mm 2 m/s 764 mmHg 79%
    04:00 +18°C° 0 mm 2 m/s 764 mmHg 74%
    05:00 +19°C° 0 mm 2 m/s 765 mmHg 70%
    06:00 +20°C° 0 mm 2 m/s 765 mmHg 65%
    07:00 +23°C° 0 mm 2 m/s 766 mmHg 57%
    08:00 +25°C° 0 mm 2 m/s 766 mmHg 49%
    09:00 +27°C° 0 mm 2 m/s 766 mmHg 41%
    10:00 +28°C° 0 mm 2 m/s 766 mmHg 39%
    11:00 +29°C° 0 mm 3 m/s 766 mmHg 37%
    12:00 +30°C° 0 mm 4 m/s 766 mmHg 35%
    13:00 +30°C° 0 mm 4 m/s 766 mmHg 37%
    14:00 +29°C° 0 mm 5 m/s 766 mmHg 39%
    15:00 +29°C° 0 mm 5 m/s 766 mmHg 41%
    16:00 +27°C° 0 mm 5 m/s 766 mmHg 45%
    17:00 +26°C° 0 mm 5 m/s 766 mmHg 50%
    18:00 +25°C° 0 mm 5 m/s 766 mmHg 54%
    19:00 +22°C° 0 mm 4 m/s 766 mmHg 61%
    20:00 +21°C° 0 mm 3 m/s 767 mmHg 67%
    21:00 +20°C° 0 mm 3 m/s 767 mmHg 74%
    22:00 +19°C° 0 mm 3 m/s 767 mmHg 76%
    23:00 +19°C° 0 mm 3 m/s 767 mmHg 79%

    Poimâine, 30 Mai, Marţi

    Timp Temperatura Precipitaţii Vânt Presiune Umiditate
    00:00 +18°C° 0 mm 3 m/s 767 mmHg 82%
    01:00 +18°C° 0 mm 3 m/s 766 mmHg 84%
    02:00 +17°C° 0 mm 3 m/s 766 mmHg 85%
    03:00 +17°C° 0 mm 3 m/s 766 mmHg 87%
    04:00 +18°C° 0 mm 2 m/s 766 mmHg 84%
    05:00 +19°C° 0 mm 2 m/s 766 mmHg 80%
    06:00 +21°C° 0 mm 1 m/s 766 mmHg 77%
    07:00 +22°C° 0 mm 1 m/s 765 mmHg 69%
    08:00 +24°C° 0 mm 1 m/s 765 mmHg 61%
    09:00 +24°C° 0 mm 0 m/s 765 mmHg 53%
    10:00 +27°C° 0 mm 1 m/s 765 mmHg 48%
    11:00 +28°C° 0 mm 1 m/s 764 mmHg 44%
    12:00 +30°C° 0 mm 2 m/s 764 mmHg 39%
    13:00 +30°C° 0 mm 3 m/s 763 mmHg 38%
    14:00 +31°C° 0 mm 3 m/s 762 mmHg 37%
    15:00 +32°C° 0 mm 4 m/s 762 mmHg 36%
    16:00 +30°C° 0 mm 4 m/s 762 mmHg 41%
    17:00 +28°C° 0 mm 4 m/s 762 mmHg 45%
    18:00 +26°C° 0 mm 4 m/s 761 mmHg 49%
    19:00 +25°C° 0 mm 4 m/s 762 mmHg 55%
    20:00 +22°C° 0 mm 3 m/s 762 mmHg 62%
    21:00 +20°C° 0 mm 3 m/s 762 mmHg 68%
    22:00 +20°C° 0 mm 2 m/s 762 mmHg 70%
    23:00 +19°C° 0 mm 2 m/s 762 mmHg 72%

    31 Mai, Miercuri

    Timp Temperatura Precipitaţii Vânt Presiune Umiditate
    00:00 +20°C° 0 mm 1 m/s 762 mmHg 75%
    01:00 +20°C° 0 mm 1 m/s 762 mmHg 73%
    02:00 +19°C° 0 mm 2 m/s 762 mmHg 72%
    03:00 +18°C° 0 mm 2 m/s 762 mmHg 71%
    04:00 +20°C° 0 mm 2 m/s 762 mmHg 68%
    05:00 +21°C° 0 mm 2 m/s 762 mmHg 64%
    06:00 +22°C° 0 mm 3 m/s 762 mmHg 61%
    07:00 +25°C° 0 mm 3 m/s 763 mmHg 55%
    08:00 +27°C° 0 mm 3 m/s 763 mmHg 49%
    09:00 +28°C° 0 mm 3 m/s 763 mmHg 43%
    10:00 +29°C° 0 mm 4 m/s 762 mmHg 40%
    11:00 +32°C° 0 mm 4 m/s 762 mmHg 38%
    12:00 +33°C° 0 mm 4 m/s 761 mmHg 35%
    13:00 +33°C° 0 mm 4 m/s 761 mmHg 35%
    14:00 +33°C° 0 mm 5 m/s 760 mmHg 35%
    15:00 +33°C° 0 mm 5 m/s 760 mmHg 35%
    16:00 +30°C° 0 mm 5 m/s 760 mmHg 40%
    17:00 +28°C° 0 mm 5 m/s 760 mmHg 45%
    18:00 +26°C° 0 mm 4 m/s 760 mmHg 50%
    19:00 +25°C° 0 mm 4 m/s 760 mmHg 55%
    20:00 +22°C° 0 mm 4 m/s 760 mmHg 61%
    21:00 +21°C° 0 mm 3 m/s 760 mmHg 67%
    22:00 +20°C° 0 mm 3 m/s 760 mmHg 68%
    23:00 +19°C° 0 mm 3 m/s 759 mmHg 69%

    1 Iunie, Joi

    Timp Temperatura Precipitaţii Vânt Presiune Umiditate
    00:00 +19°C° 0 mm 3 m/s 759 mmHg 71%
    01:00 +18°C° 0 mm 3 m/s 759 mmHg 71%
    02:00 +18°C° 0 mm 3 m/s 759 mmHg 72%
    03:00 +17°C° 0 mm 3 m/s 758 mmHg 73%
    04:00 +19°C° 0 mm 3 m/s 758 mmHg 68%
    05:00 +20°C° 0 mm 3 m/s 759 mmHg 64%
    06:00 +21°C° 0 mm 3 m/s 759 mmHg 60%
    07:00 +24°C° 0 mm 3 m/s 759 mmHg 53%
    08:00 +26°C° 0 mm 3 m/s 758 mmHg 45%
    09:00 +28°C° 0 mm 3 m/s 758 mmHg 38%
    10:00 +29°C° 0 mm 3 m/s 758 mmHg 35%
    11:00 +31°C° 0 mm 3 m/s 757 mmHg 32%
    12:00 +32°C° 0 mm 2 m/s 757 mmHg 29%
    13:00 +33°C° 0 mm 3 m/s 757 mmHg 29%
    14:00 +34°C° 0 mm 4 m/s 756 mmHg 29%
    15:00 +34°C° 0 mm 4 m/s 756 mmHg 28%
    16:00 +32°C° 0 mm 4 m/s 756 mmHg 33%
    17:00 +30°C° 0 mm 4 m/s 756 mmHg 38%
    18:00 +28°C° 0 mm 4 m/s 756 mmHg 43%
    19:00 +26°C° 0 mm 4 m/s 757 mmHg 48%
    20:00 +23°C° 0 mm 4 m/s 757 mmHg 53%
    21:00 +21°C° 0 mm 3 m/s 758 mmHg 59%
    22:00 +21°C° 0 mm 3 m/s 758 mmHg 60%
    23:00 +20°C° 0 mm 3 m/s 758 mmHg 62%

    2 Iunie, Vineri

    Timp Temperatura Precipitaţii Vânt Presiune Umiditate
    00:00 +20°C° 0 mm 2 m/s 758 mmHg 63%
    01:00 +20°C° 0 mm 2 m/s 758 mmHg 63%
    02:00 +19°C° 0 mm 2 m/s 758 mmHg 64%
    03:00 +19°C° 0 mm 2 m/s 758 mmHg 64%
    04:00 +20°C° 0 mm 2 m/s 758 mmHg 61%
    05:00 +23°C° 0 mm 2 m/s 759 mmHg 57%
    06:00 +24°C° 0 mm 2 m/s 759 mmHg 54%
    07:00 +26°C° 0 mm 2 m/s 759 mmHg 48%
    08:00 +27°C° 0 mm 2 m/s 759 mmHg 42%
    09:00 +29°C° 0 mm 2 m/s 759 mmHg 37%
    10:00 +30°C° 0 mm 2 m/s 759 mmHg 35%
    11:00 +31°C° 0 mm 3 m/s 759 mmHg 33%
    12:00 +33°C° 0 mm 3 m/s 759 mmHg 31%
    13:00 +33°C° 0 mm 4 m/s 758 mmHg 31%
    14:00 +33°C° 0 mm 4 m/s 758 mmHg 32%
    15:00 +33°C° 0 mm 5 m/s 758 mmHg 32%
    16:00 +32°C° 0 mm 5 m/s 758 mmHg 35%
    17:00 +29°C° 0 mm 4 m/s 759 mmHg 38%
    18:00 +28°C° 0 mm 4 m/s 759 mmHg 41%
    19:00 +26°C° 0 mm 3 m/s 759 mmHg 47%
    20:00 +24°C° 0 mm 3 m/s 760 mmHg 52%
    21:00 +23°C° 0 mm 2 m/s 760 mmHg 58%
    22:00 +21°C° 0 mm 2 m/s 760 mmHg 58%
    23:00 +21°C° 0 mm 2 m/s 760 mmHg 58%
    Arată mai mult